Change the Weather History Date:

Sunday, February 9, 2014

  Actual Average Record
Temperature  
Mean Temperature 14 °F -  
Max Temperature 19 °F 42 °F 68 °F (2015)
Min Temperature 10 °F 18 °F -9 °F (2011)
Degree Days  
Heating Degree Days 50    
Moisture  
Dew Point 13 °F    
Average Humidity 91    
Maximum Humidity 100    
Minimum Humidity 85    
Precipitation  
Precipitation 0.00 in - - ()
Sea Level Pressure  
Sea Level Pressure 30.01 in    
Wind  
Wind Speed 7 mph (East)    
Max Wind Speed 12 mph    
Max Gust Speed -    
Visibility 3 miles    
Events      
Averages and records for this station are not official NWS values.
T = Trace of Precipitation, MM = Missing Value Source: NWS Daily Summary

Daily Weather History Graph

Daily Weather History Graph

Search for Another Location

Airport or City:

Trip Planner

Search our weather history database for the weather conditions in past years. The results will help you decide how hot, cold, wet, or windy it might be!

Date:

Astronomy

Feb. 09, 2014 Rise Set
Actual Time 7:00 AM MST 5:28 PM MST
Civil Twilight 6:32 AM MST 5:56 PM MST
Nautical Twilight 6:00 AM MST 6:28 PM MST
Astronomical Twilight 5:28 AM MST 7:00 PM MST
Moon 1:09 PM MST (2/9) 3:08 AM MST (2/9)
Length of Visible Light 11h 23m
Length of Day
10h 27m
Waxing Gibbous, 77% of the Moon is Illuminated
Feb 9
Waxing Gibbous
Feb 14
Full
Feb 22
Last Quarter
Mar 1
New
Mar 8
First Quarter

Hourly Weather History & Observations

Time (MST) Temp. Windchill Dew Point Humidity Pressure Visibility Wind Dir Wind Speed Gust Speed Precip Events Conditions
12:15 AM 19.4 °F 11.5 °F 17.6 °F 93% 30.05 in 5.0 mi ESE 5.8 mph - N/A   Overcast
12:35 AM 19.4 °F 9.5 °F 15.8 °F 86% 30.04 in 5.0 mi SE 8.1 mph - N/A   Overcast
12:55 AM 19.4 °F 8.6 °F 15.8 °F 86% 30.03 in 5.0 mi SE 9.2 mph - N/A   Overcast
1:15 AM 19.4 °F 7.2 °F 15.8 °F 86% 30.03 in 5.0 mi ESE 11.5 mph - N/A   Overcast
1:35 AM 17.6 °F 6.4 °F 15.8 °F 93% 30.02 in 4.0 mi East 9.2 mph - N/A   Overcast
1:55 AM 17.6 °F 7.3 °F 15.8 °F 93% 30.01 in 3.0 mi East 8.1 mph - N/A   Overcast
2:15 AM 17.6 °F 7.3 °F 15.8 °F 93% 30.00 in 2.5 mi East 8.1 mph - N/A   Overcast
2:35 AM 17.6 °F 5.0 °F 15.8 °F 93% 29.99 in 2.0 mi East 11.5 mph - N/A   Overcast
2:55 AM 17.6 °F 5.7 °F 15.8 °F 93% 29.99 in 1.5 mi East 10.4 mph - N/A   Overcast
3:15 AM 17.6 °F 6.4 °F 15.8 °F 93% 29.99 in 1.5 mi ESE 9.2 mph - N/A   Overcast
3:35 AM 17.6 °F 7.3 °F 15.8 °F 93% 29.98 in 1.8 mi ESE 8.1 mph - N/A   Overcast
3:55 AM 17.6 °F 8.2 °F 15.8 °F 93% 29.99 in 1.2 mi East 6.9 mph - N/A   Overcast
4:15 AM 17.6 °F 8.2 °F 15.8 °F 93% 29.99 in 1.0 mi ESE 6.9 mph - N/A   Overcast
4:35 AM 17.6 °F 8.2 °F 15.8 °F 93% 29.99 in 0.8 mi SE 6.9 mph - N/A   Overcast
4:55 AM 17.6 °F 7.3 °F 15.8 °F 93% 29.97 in 0.5 mi East 8.1 mph - N/A   Overcast
5:15 AM 17.6 °F 10.7 °F 15.8 °F 93% 29.99 in 0.2 mi SE 4.6 mph - N/A   Overcast
5:35 AM 17.6 °F 10.7 °F 15.8 °F 93% 29.98 in 0.2 mi SSE 4.6 mph - N/A   Overcast
5:55 AM 17.6 °F 8.2 °F 15.8 °F 93% 29.97 in 0.5 mi SE 6.9 mph - N/A   Overcast
6:15 AM 17.6 °F 9.3 °F 15.8 °F 93% 29.97 in 0.5 mi SE 5.8 mph - N/A   Overcast
6:35 AM 17.6 °F 8.2 °F 15.8 °F 93% 29.97 in 0.2 mi SSE 6.9 mph - N/A   Overcast
6:55 AM 17.6 °F 8.2 °F 15.8 °F 93% 29.96 in 0.2 mi SSE 6.9 mph - N/A   Overcast
7:15 AM 17.6 °F 7.3 °F 15.8 °F 93% 29.97 in 0.2 mi SE 8.1 mph - N/A   Overcast
7:35 AM 17.6 °F 9.3 °F 15.8 °F 93% 29.98 in 0.2 mi SE 5.8 mph - N/A   Overcast
7:55 AM 17.6 °F 8.2 °F 15.8 °F 93% 29.99 in 0.2 mi SE 6.9 mph - N/A   Overcast
8:15 AM 17.6 °F 8.2 °F 15.8 °F 93% 30.00 in 0.2 mi East 6.9 mph - N/A   Overcast
8:35 AM 17.6 °F 9.3 °F 15.8 °F 93% 29.99 in 0.2 mi East 5.8 mph - N/A   Overcast
8:55 AM 17.6 °F 7.3 °F 15.8 °F 93% 29.99 in 0.2 mi East 8.1 mph - N/A   Overcast
9:15 AM 17.6 °F 9.3 °F 15.8 °F 93% 30.00 in 0.2 mi East 5.8 mph - N/A   Overcast
9:35 AM 17.6 °F 9.3 °F 15.8 °F 93% 29.98 in 0.2 mi East 5.8 mph - N/A   Overcast
9:55 AM 17.6 °F 9.3 °F 15.8 °F 93% 30.00 in 0.5 mi ENE 5.8 mph - N/A   Overcast
10:15 AM 17.6 °F 9.3 °F 15.8 °F 93% 30.00 in 0.5 mi East 5.8 mph - N/A   Overcast
10:35 AM 17.6 °F 9.3 °F 15.8 °F 93% 30.01 in 0.2 mi ENE 5.8 mph - N/A   Overcast
10:55 AM 17.6 °F 5.0 °F 15.8 °F 93% 29.99 in 0.2 mi ENE 11.5 mph - N/A   Overcast
11:15 AM 17.6 °F 5.7 °F 15.8 °F 93% 29.99 in 0.2 mi ENE 10.4 mph - N/A   Overcast
11:35 AM 17.6 °F 6.4 °F 15.8 °F 93% 29.98 in 0.5 mi East 9.2 mph - N/A   Overcast
11:55 AM 17.6 °F 6.4 °F 15.8 °F 93% 29.97 in 0.2 mi East 9.2 mph - N/A   Overcast
12:15 PM 17.6 °F 10.7 °F 15.8 °F 93% 29.98 in 0.2 mi East 4.6 mph - N/A   Overcast
12:35 PM 17.6 °F 10.7 °F 15.8 °F 93% 29.97 in 0.5 mi ESE 4.6 mph - N/A   Overcast
12:55 PM 19.4 °F - 17.6 °F 93% 29.97 in 1.0 mi Calm Calm - N/A   Overcast
1:15 PM 17.6 °F 7.3 °F 15.8 °F 93% 29.96 in 1.5 mi ESE 8.1 mph - N/A   Overcast
1:35 PM 17.6 °F 7.3 °F 15.8 °F 93% 29.96 in 1.0 mi ESE 8.1 mph - N/A   Overcast
1:55 PM 15.8 °F 4.2 °F 15.8 °F 100% 29.96 in 2.0 mi ENE 9.2 mph - N/A   Overcast
2:15 PM 15.8 °F 4.2 °F 14.0 °F 93% 29.96 in 2.5 mi ENE 9.2 mph - N/A   Overcast
2:35 PM 15.8 °F 4.2 °F 14.0 °F 93% 29.98 in 3.0 mi ENE 9.2 mph - N/A   Overcast
2:55 PM 15.8 °F 4.2 °F 14.0 °F 93% 29.98 in 1.8 mi ENE 9.2 mph - N/A   Overcast
3:15 PM 15.8 °F 4.2 °F 12.2 °F 86% 29.99 in 2.5 mi East 9.2 mph - N/A   Overcast
3:35 PM 15.8 °F 4.2 °F 12.2 °F 86% 30.00 in 3.0 mi East 9.2 mph - N/A   Overcast
3:55 PM 14.0 °F 2.9 °F 12.2 °F 93% 30.00 in 2.5 mi East 8.1 mph - N/A   Overcast
4:15 PM 15.8 °F 6.1 °F 12.2 °F 86% 30.01 in 1.8 mi East 6.9 mph - N/A   Overcast
4:35 PM 14.0 °F 6.5 °F 12.2 °F 93% 30.01 in 3.0 mi ENE 4.6 mph - N/A   Overcast
4:55 PM 14.0 °F 5.1 °F 12.2 °F 93% 30.02 in 3.0 mi NE 5.8 mph - N/A   Overcast
5:15 PM 12.2 °F 1.7 °F 12.2 °F 100% 30.03 in 3.0 mi NE 6.9 mph - N/A   Overcast
5:35 PM 12.2 °F 1.7 °F 8.6 °F 85% 30.03 in 10.0 mi NE 6.9 mph - N/A   Overcast
5:55 PM 12.2 °F 4.3 °F 8.6 °F 85% 30.04 in 10.0 mi ENE 4.6 mph - N/A   Overcast
6:15 PM 12.2 °F 2.9 °F 8.6 °F 85% 30.03 in 10.0 mi ENE 5.8 mph - N/A   Overcast
6:35 PM 12.2 °F 6.1 °F 8.6 °F 85% 30.06 in 8.0 mi ENE 3.5 mph - N/A   Overcast
6:55 PM 12.2 °F 6.1 °F 8.6 °F 85% 30.06 in 7.0 mi ENE 3.5 mph - N/A   Overcast
7:15 PM 12.2 °F 4.3 °F 8.6 °F 85% 30.05 in 7.0 mi East 4.6 mph - N/A   Overcast
7:35 PM 12.2 °F - 8.6 °F 85% 30.06 in 5.0 mi Calm Calm - N/A   Overcast
7:55 PM 12.2 °F - 10.4 °F 92% 30.06 in 5.0 mi Calm Calm - N/A   Overcast
8:15 PM 12.2 °F 6.1 °F 8.6 °F 85% 30.05 in 5.0 mi ESE 3.5 mph - N/A   Overcast
8:35 PM 12.2 °F 4.3 °F 8.6 °F 85% 30.05 in 5.0 mi ESE 4.6 mph - N/A   Overcast
8:55 PM 12.2 °F 2.9 °F 10.4 °F 92% 30.06 in 9.0 mi ESE 5.8 mph - N/A   Overcast
9:15 PM 12.2 °F 2.9 °F 8.6 °F 85% 30.06 in 10.0 mi East 5.8 mph - N/A   Overcast
9:35 PM 12.2 °F 2.9 °F 10.4 °F 92% 30.07 in 10.0 mi ENE 5.8 mph - N/A   Overcast
9:55 PM 12.2 °F 2.9 °F 8.6 °F 85% 30.08 in 8.0 mi ENE 5.8 mph - N/A   Overcast
10:15 PM 12.2 °F 2.9 °F 8.6 °F 85% 30.07 in 7.0 mi ENE 5.8 mph - N/A   Overcast
10:35 PM 10.4 °F 2.2 °F 8.6 °F 92% 30.07 in 10.0 mi NE 4.6 mph - N/A   Overcast
10:55 PM 10.4 °F 0.8 °F 8.6 °F 92% 30.08 in 8.0 mi NNE 5.8 mph - N/A   Overcast
11:15 PM 10.4 °F 0.8 °F 8.6 °F 92% 30.07 in 10.0 mi NNE 5.8 mph - N/A   Overcast
11:35 PM 10.4 °F - 8.6 °F 92% 30.08 in 10.0 mi Calm Calm - N/A   Overcast
11:55 PM 10.4 °F 0.8 °F 8.6 °F 92% 30.07 in 10.0 mi NNE 5.8 mph - N/A   Overcast